CFG37ML LDSP-LOWK

Flight info

Callsign CFG37ML
Flight time 1h 2m
Altitude 20000
Route ZDA L868 DARZA DCT EBITI DCT ARLON DCT DIPSA DIPSA3A
Aircraft A320/M-SDE3FGHIRWY/LB1

Departure

Time 2026-04-21 16:05
Airport Split Saint Jerome Airport (LDSP)

Arrival

Time 2026-04-21 17:07
Airport Klagenfurt Airport (LOWK)
Time Latitude Longitude Altitude Speed Heading
2026-04-21 15:22 43.53693 16.29815 68 ft 0 kts 114°
2026-04-21 15:56 43.53704 16.29818 68 ft 4 kts
2026-04-21 15:56 43.53725 16.29813 68 ft 3 kts 351°
2026-04-21 15:56 43.53741 16.29810 68 ft 2 kts 352°
2026-04-21 15:56 43.53772 16.29821 66 ft 8 kts 33°
2026-04-21 15:57 43.53810 16.29886 61 ft 8 kts 54°
2026-04-21 15:57 43.53842 16.29944 64 ft 7 kts 52°
2026-04-21 15:57 43.53868 16.29992 66 ft 6 kts 52°
2026-04-21 15:57 43.53889 16.30030 68 ft 5 kts 53°
2026-04-21 15:58 43.53893 16.30036 68 ft 0 kts 50°
2026-04-21 16:00 43.53903 16.30052 68 ft 4 kts 43°
2026-04-21 16:00 43.53925 16.30067 68 ft 0 kts 19°
2026-04-21 16:02 43.53936 16.30072 61 ft 6 kts 18°
2026-04-21 16:02 43.54015 16.30108 60 ft 17 kts 18°
2026-04-21 16:02 43.54129 16.30224 60 ft 25 kts 51°
2026-04-21 16:03 43.54244 16.30429 59 ft 28 kts 53°
2026-04-21 16:03 43.54325 16.30576 55 ft 30 kts 51°
2026-04-21 16:03 43.54459 16.30813 50 ft 32 kts 52°
2026-04-21 16:03 43.54550 16.31044 53 ft 15 kts 83°
2026-04-21 16:04 43.54579 16.31056 52 ft 5 kts 282°
2026-04-21 16:04 43.54427 16.30755 52 ft 77 kts 231°
2026-04-21 16:04 43.53968 16.29923 65 ft 138 kts 232°
2026-04-21 16:04 43.53345 16.28755 417 ft 154 kts 233°
2026-04-21 16:05 43.52666 16.27601 1027 ft 156 kts 231°
2026-04-21 16:05 43.51968 16.26483 1746 ft 152 kts 230°
2026-04-21 16:05 43.51272 16.25398 2344 ft 151 kts 227°
2026-04-21 16:05 43.50603 16.24300 2895 ft 148 kts 231°
2026-04-21 16:06 43.49943 16.23196 3277 ft 152 kts 232°
2026-04-21 16:06 43.49227 16.21998 3503 ft 173 kts 232°
2026-04-21 16:06 43.48400 16.20608 3668 ft 202 kts 232°
2026-04-21 16:06 43.47460 16.19031 3994 ft 224 kts 232°
2026-04-21 16:07 43.46651 16.17090 4383 ft 245 kts 255°
2026-04-21 16:07 43.46476 16.14675 4817 ft 264 kts 281°
2026-04-21 16:07 43.47114 16.12292 5572 ft 269 kts 306°
2026-04-21 16:07 43.48418 16.10471 6437 ft 269 kts 324°
2026-04-21 16:08 43.51444 16.07329 8186 ft 277 kts 324°
2026-04-21 16:08 43.52996 16.05725 9026 ft 281 kts 324°
2026-04-21 16:08 43.54569 16.04101 9843 ft 284 kts 324°
2026-04-21 16:09 43.56152 16.02461 10682 ft 286 kts 323°
2026-04-21 16:09 43.57733 16.00696 11173 ft 303 kts 320°
2026-04-21 16:09 43.59383 15.98707 11400 ft 327 kts 318°
2026-04-21 16:09 43.61121 15.96538 11709 ft 344 kts 317°
2026-04-21 16:10 43.62910 15.94292 12357 ft 350 kts 317°
2026-04-21 16:10 43.64716 15.92032 13104 ft 352 kts 317°
2026-04-21 16:10 43.66544 15.89755 13842 ft 354 kts 316°
2026-04-21 16:10 43.68381 15.87484 14574 ft 355 kts 316°
2026-04-21 16:11 43.70230 15.85210 15273 ft 357 kts 316°
2026-04-21 16:11 43.72091 15.82925 15988 ft 358 kts 315°
2026-04-21 16:11 43.73960 15.80630 16673 ft 360 kts 315°
2026-04-21 16:11 43.75827 15.78329 17334 ft 361 kts 314°
2026-04-21 16:12 43.77706 15.76011 17979 ft 362 kts 314°
2026-04-21 16:12 43.79587 15.73692 18625 ft 363 kts 314°
2026-04-21 16:12 43.81483 15.71350 19212 ft 367 kts 313°
2026-04-21 16:12 43.83391 15.68987 19758 ft 370 kts 313°
2026-04-21 16:13 43.85311 15.66604 19965 ft 371 kts 313°
2026-04-21 16:13 43.87260 15.64175 20010 ft 384 kts 313°
2026-04-21 16:13 43.89285 15.61647 20014 ft 398 kts 313°
2026-04-21 16:13 43.91355 15.59071 20012 ft 402 kts 313°
2026-04-21 16:14 43.93445 15.56483 20012 ft 403 kts 314°
2026-04-21 16:14 43.95537 15.53899 20026 ft 403 kts 313°
2026-04-21 16:14 43.97627 15.51315 20014 ft 405 kts 314°
2026-04-21 16:14 43.99720 15.48707 20007 ft 404 kts 313°
2026-04-21 16:15 44.01804 15.46091 20013 ft 404 kts 313°
2026-04-21 16:15 44.03886 15.43481 20016 ft 403 kts 314°
2026-04-21 16:15 44.05971 15.40872 20012 ft 404 kts 314°
2026-04-21 16:15 44.08230 15.38513 20016 ft 409 kts 323°
2026-04-21 16:16 44.10806 15.36743 20009 ft 417 kts 334°
2026-04-21 16:16 44.13620 15.35647 20012 ft 425 kts 343°
2026-04-21 16:16 44.16563 15.35056 20008 ft 427 kts 346°
2026-04-21 16:16 44.19501 15.34486 20018 ft 426 kts 346°
2026-04-21 16:17 44.22428 15.33913 20017 ft 425 kts 346°
2026-04-21 16:17 44.25359 15.33340 20013 ft 425 kts 346°
2026-04-21 16:17 44.28288 15.32767 20009 ft 425 kts 346°
2026-04-21 16:17 44.31216 15.32200 20005 ft 425 kts 346°
2026-04-21 16:18 44.34142 15.31633 20005 ft 425 kts 346°
2026-04-21 16:18 44.37067 15.31061 20007 ft 425 kts 346°
2026-04-21 16:18 44.39996 15.30485 20003 ft 425 kts 346°
2026-04-21 16:18 44.42922 15.29907 20007 ft 425 kts 346°
2026-04-21 16:19 44.45851 15.29329 20011 ft 425 kts 346°
2026-04-21 16:19 44.48781 15.28753 20012 ft 425 kts 346°
2026-04-21 16:19 44.51708 15.28180 20008 ft 425 kts 346°
2026-04-21 16:19 44.54637 15.27610 20010 ft 425 kts 346°
2026-04-21 16:20 44.57565 15.27037 20019 ft 425 kts 346°
2026-04-21 16:20 44.60493 15.26461 20018 ft 425 kts 346°
2026-04-21 16:20 44.63426 15.25885 20030 ft 425 kts 346°
2026-04-21 16:20 44.66352 15.25307 20035 ft 425 kts 346°
2026-04-21 16:21 44.69279 15.24729 20044 ft 425 kts 346°
2026-04-21 16:21 44.72204 15.24149 20048 ft 425 kts 346°
2026-04-21 16:21 44.75130 15.23567 20053 ft 424 kts 347°
2026-04-21 16:21 44.78050 15.22984 20055 ft 424 kts 346°
2026-04-21 16:22 44.80969 15.22402 20057 ft 423 kts 347°
2026-04-21 16:22 44.83884 15.21820 20056 ft 423 kts 347°
2026-04-21 16:22 44.86800 15.21239 20057 ft 423 kts 347°
2026-04-21 16:22 44.89712 15.20664 20058 ft 423 kts 347°
2026-04-21 16:23 44.92626 15.20087 20055 ft 423 kts 347°
2026-04-21 16:23 44.95536 15.19507 20054 ft 422 kts 347°
2026-04-21 16:23 44.98444 15.18927 20057 ft 422 kts 347°
2026-04-21 16:23 45.01351 15.18345 20060 ft 422 kts 347°
2026-04-21 16:24 45.04257 15.17764 20056 ft 421 kts 347°
2026-04-21 16:24 45.07124 15.17014 20055 ft 417 kts 341°
2026-04-21 16:24 45.09922 15.15930 20056 ft 417 kts 340°
2026-04-21 16:24 45.12718 15.14838 20059 ft 417 kts 340°
2026-04-21 16:25 45.15513 15.13743 20062 ft 417 kts 340°
2026-04-21 16:25 45.18309 15.12652 20063 ft 417 kts 340°
2026-04-21 16:25 45.21114 15.11574 20067 ft 417 kts 340°
2026-04-21 16:25 45.23916 15.10510 20065 ft 417 kts 341°
2026-04-21 16:26 45.26719 15.09449 20068 ft 417 kts 341°
2026-04-21 16:26 45.29522 15.08386 20069 ft 417 kts 340°
2026-04-21 16:26 45.32320 15.07322 20072 ft 417 kts 341°
2026-04-21 16:26 45.35123 15.06247 20075 ft 417 kts 341°
2026-04-21 16:27 45.37927 15.05167 20076 ft 417 kts 341°
2026-04-21 16:27 45.40737 15.04085 20082 ft 418 kts 341°
2026-04-21 16:27 45.43540 15.03006 20090 ft 418 kts 341°
2026-04-21 16:27 45.46343 15.01928 20099 ft 417 kts 341°
2026-04-21 16:28 45.49173 15.00969 20100 ft 420 kts 346°
2026-04-21 16:28 45.52102 15.00608 20104 ft 424 kts 354°
2026-04-21 16:28 45.55053 15.00510 20103 ft 424 kts 354°
2026-04-21 16:28 45.57999 15.00406 20108 ft 423 kts 354°
2026-04-21 16:29 45.59951 15.00333 20112 ft 424 kts 354°
2026-04-21 16:29 45.63890 15.00176 20114 ft 423 kts 354°
2026-04-21 16:29 45.66838 15.00061 20107 ft 423 kts 354°
2026-04-21 16:29 45.69775 14.99947 20111 ft 422 kts 354°
2026-04-21 16:30 45.72711 14.99831 20109 ft 422 kts 354°
2026-04-21 16:30 45.75642 14.99718 20116 ft 422 kts 354°
2026-04-21 16:30 45.78578 14.99607 20120 ft 422 kts 354°
2026-04-21 16:30 45.81517 14.99498 20123 ft 422 kts 354°
2026-04-21 16:31 45.84407 14.99396 19828 ft 411 kts 354°
2026-04-21 16:31 45.87248 14.99298 19202 ft 405 kts 354°
2026-04-21 16:31 45.90052 14.99192 18591 ft 401 kts 354°
2026-04-21 16:31 45.92826 14.99081 17969 ft 397 kts 354°
2026-04-21 16:32 45.95577 14.98972 17341 ft 394 kts 354°
2026-04-21 16:32 45.98305 14.98859 16725 ft 391 kts 355°
2026-04-21 16:32 46.01012 14.98746 16136 ft 387 kts 355°
2026-04-21 16:32 46.03691 14.98637 15547 ft 384 kts 356°
2026-04-21 16:33 46.06353 14.98600 14956 ft 382 kts
2026-04-21 16:33 46.08992 14.98904 14368 ft 379 kts
2026-04-21 16:33 46.11611 14.99232 13781 ft 376 kts
2026-04-21 16:33 46.14203 14.99558 13190 ft 372 kts
2026-04-21 16:34 46.16776 14.99882 12569 ft 369 kts
2026-04-21 16:34 46.19328 15.00206 11935 ft 367 kts
2026-04-21 16:34 46.21858 15.00524 11326 ft 363 kts
2026-04-21 16:34 46.24368 15.00840 10684 ft 360 kts
2026-04-21 16:35 46.26856 15.01152 10019 ft 358 kts
2026-04-21 16:35 46.29288 15.01453 9826 ft 342 kts
2026-04-21 16:35 46.31600 15.01738 9707 ft 325 kts
2026-04-21 16:35 46.33796 15.02009 9601 ft 309 kts
2026-04-21 16:36 46.35894 15.02272 9485 ft 296 kts
2026-04-21 16:36 46.37904 15.02525 9357 ft 284 kts
2026-04-21 16:36 46.39847 15.02674 9134 ft 277 kts 359°
2026-04-21 16:36 46.41758 15.02414 8795 ft 275 kts 350°
2026-04-21 16:37 46.43607 15.01736 8402 ft 273 kts 342°
2026-04-21 16:37 46.45384 15.00774 7999 ft 272 kts 340°
2026-04-21 16:37 46.47152 14.99806 7599 ft 271 kts 340°
2026-04-21 16:37 46.48912 14.98844 7168 ft 270 kts 340°
2026-04-21 16:38 46.50664 14.97883 6788 ft 268 kts 340°
2026-04-21 16:38 46.52406 14.96927 6416 ft 267 kts 340°
2026-04-21 16:38 46.54137 14.95973 6036 ft 265 kts 340°
2026-04-21 16:38 46.55860 14.95023 5664 ft 264 kts 340°
2026-04-21 16:39 46.57520 14.94106 5536 ft 253 kts 339°
2026-04-21 16:39 46.59028 14.92848 5401 ft 243 kts 320°
2026-04-21 16:39 46.60105 14.91006 5191 ft 239 kts 300°
2026-04-21 16:39 46.60685 14.88835 5070 ft 230 kts 281°
2026-04-21 16:40 46.60780 14.86563 4943 ft 221 kts 266°
2026-04-21 16:40 46.60707 14.84375 4846 ft 210 kts 268°
2026-04-21 16:40 46.60640 14.82327 4715 ft 197 kts 268°
2026-04-21 16:40 46.60576 14.80381 4512 ft 190 kts 268°
2026-04-21 16:41 46.60535 14.79092 4365 ft 188 kts 269°
2026-04-21 16:41 46.60453 14.76595 4107 ft 186 kts 269°
2026-04-21 16:41 46.60392 14.74724 4001 ft 185 kts 269°
2026-04-21 16:41 46.60330 14.72858 4017 ft 186 kts 269°
2026-04-21 16:42 46.60267 14.70981 4005 ft 185 kts 269°
2026-04-21 16:42 46.60204 14.69108 4015 ft 186 kts 269°
2026-04-21 16:42 46.60139 14.67232 4031 ft 186 kts 269°
2026-04-21 16:42 46.60073 14.65356 4041 ft 185 kts 269°
2026-04-21 16:43 46.60028 14.64094 4048 ft 186 kts 269°
2026-04-21 16:43 46.59964 14.62214 4038 ft 187 kts 269°
2026-04-21 16:43 46.59900 14.60330 4018 ft 187 kts 269°
2026-04-21 16:43 46.59835 14.58446 4014 ft 187 kts 269°
2026-04-21 16:44 46.59793 14.56556 4019 ft 186 kts 275°
2026-04-21 16:44 46.60033 14.54724 4019 ft 182 kts 287°
2026-04-21 16:44 46.60365 14.53004 3882 ft 169 kts 288°
2026-04-21 16:44 46.60683 14.51413 3679 ft 159 kts 288°
2026-04-21 16:45 46.60988 14.49905 3482 ft 152 kts 289°
2026-04-21 16:45 46.61285 14.48442 3287 ft 150 kts 289°
2026-04-21 16:45 46.61581 14.46987 3091 ft 149 kts 288°
2026-04-21 16:45 46.61871 14.45555 2911 ft 146 kts 288°
2026-04-21 16:46 46.62159 14.44133 2919 ft 147 kts 288°
2026-04-21 16:46 46.62448 14.42705 2921 ft 148 kts 289°
2026-04-21 16:46 46.62738 14.41269 2924 ft 148 kts 287°
2026-04-21 16:46 46.62704 14.39785 2925 ft 150 kts 253°
2026-04-21 16:47 46.62326 14.38370 2920 ft 150 kts 246°
2026-04-21 16:47 46.61894 14.36983 2918 ft 151 kts 245°
2026-04-21 16:47 46.61452 14.35598 2920 ft 151 kts 244°
2026-04-21 16:47 46.61040 14.34202 2909 ft 151 kts 257°
2026-04-21 16:48 46.61106 14.32699 2919 ft 152 kts 285°
2026-04-21 16:48 46.61396 14.31191 2912 ft 157 kts 288°
2026-04-21 16:48 46.61736 14.29629 2920 ft 166 kts 288°
2026-04-21 16:48 46.62092 14.28029 2918 ft 167 kts 288°
2026-04-21 16:49 46.62482 14.26438 2908 ft 167 kts 300°
2026-04-21 16:49 46.63301 14.25371 3008 ft 157 kts 348°
2026-04-21 16:49 46.64332 14.25481 3046 ft 148 kts 32°
2026-04-21 16:49 46.64956 14.26549 2790 ft 137 kts 73°
2026-04-21 16:50 46.65242 14.27878 2417 ft 140 kts 77°
2026-04-21 16:50 46.65179 14.29312 1895 ft 144 kts 113°
2026-04-21 16:50 46.64879 14.30635 1677 ft 135 kts 101°
2026-04-21 16:50 46.64593 14.31935 1692 ft 145 kts 109°
2026-04-21 16:51 46.64238 14.33466 2202 ft 175 kts 108°
2026-04-21 16:51 46.63827 14.35315 2588 ft 207 kts 107°
2026-04-21 16:51 46.63374 14.37476 2912 ft 234 kts 106°
2026-04-21 16:51 46.62945 14.39633 3242 ft 207 kts 105°
2026-04-21 16:52 46.62569 14.41646 3674 ft 209 kts 103°
2026-04-21 16:52 46.62205 14.43724 4250 ft 214 kts 102°
2026-04-21 16:52 46.61855 14.45844 4843 ft 216 kts 102°
2026-04-21 16:52 46.61526 14.47973 5601 ft 216 kts 101°
2026-04-21 16:53 46.61218 14.50087 6549 ft 210 kts 100°
2026-04-21 16:53 46.60876 14.52244 6943 ft 224 kts 102°
2026-04-21 16:53 46.60491 14.54456 7010 ft 226 kts 103°
2026-04-21 16:53 46.60100 14.56667 7026 ft 226 kts 103°
2026-04-21 16:54 46.59712 14.58856 7027 ft 226 kts 103°
2026-04-21 16:54 46.59313 14.61103 7018 ft 226 kts 103°
2026-04-21 16:54 46.58920 14.63314 7020 ft 226 kts 103°
2026-04-21 16:54 46.58524 14.65527 7031 ft 226 kts 103°
2026-04-21 16:55 46.58127 14.67743 7030 ft 227 kts 103°
2026-04-21 16:55 46.57729 14.69963 7021 ft 227 kts 103°
2026-04-21 16:55 46.57331 14.72181 7021 ft 226 kts 103°
2026-04-21 16:55 46.56932 14.74398 7030 ft 227 kts 103°
2026-04-21 16:56 46.56537 14.76620 7032 ft 227 kts 100°
2026-04-21 16:56 46.56528 14.78850 7022 ft 224 kts 73°
2026-04-21 16:56 46.57125 14.80930 7022 ft 223 kts 63°
2026-04-21 16:56 46.57809 14.82959 7029 ft 224 kts 63°
2026-04-21 16:57 46.58627 14.84863 7032 ft 222 kts 44°
2026-04-21 16:57 46.59916 14.86053 7020 ft 221 kts 17°
2026-04-21 16:57 46.61438 14.86198 7026 ft 222 kts 349°
2026-04-21 16:57 46.62849 14.85235 7030 ft 225 kts 320°
2026-04-21 16:58 46.63755 14.83388 7033 ft 229 kts 290°
2026-04-21 16:58 46.63923 14.81097 7020 ft 232 kts 261°
2026-04-21 16:58 46.63556 14.78807 6986 ft 232 kts 257°
2026-04-21 16:58 46.63169 14.76527 6662 ft 232 kts 257°
2026-04-21 16:59 46.62785 14.74253 6336 ft 231 kts 257°
2026-04-21 16:59 46.62407 14.71983 6005 ft 231 kts 257°
2026-04-21 16:59 46.62029 14.69721 5720 ft 230 kts 257°
2026-04-21 16:59 46.61651 14.67472 5417 ft 229 kts 257°
2026-04-21 17:00 46.61276 14.65234 5123 ft 227 kts 257°
2026-04-21 17:00 46.60901 14.62999 4793 ft 228 kts 257°
2026-04-21 17:00 46.60652 14.61520 4601 ft 227 kts 257°
2026-04-21 17:00 46.60149 14.58548 4203 ft 225 kts 257°
2026-04-21 17:01 46.59886 14.56319 4002 ft 223 kts 271°
2026-04-21 17:01 46.60129 14.54101 3780 ft 222 kts 288°
2026-04-21 17:01 46.60569 14.51953 3527 ft 220 kts 288°
2026-04-21 17:01 46.61003 14.49825 3275 ft 219 kts 288°
2026-04-21 17:02 46.61432 14.47714 3067 ft 216 kts 288°
2026-04-21 17:02 46.61849 14.45661 3023 ft 205 kts 288°
2026-04-21 17:02 46.62237 14.43745 3017 ft 195 kts 288°
2026-04-21 17:02 46.62604 14.41928 2989 ft 177 kts 288°
2026-04-21 17:03 46.62932 14.40303 2992 ft 159 kts 288°
2026-04-21 17:03 46.63238 14.38782 3003 ft 158 kts 287°
2026-04-21 17:03 46.63200 14.37181 3044 ft 163 kts 254°
2026-04-21 17:03 46.62782 14.35641 3035 ft 164 kts 246°
2026-04-21 17:04 46.62306 14.34130 3032 ft 164 kts 245°
2026-04-21 17:04 46.61824 14.32623 3029 ft 164 kts 245°
2026-04-21 17:04 46.61522 14.31049 2995 ft 162 kts 274°
2026-04-21 17:04 46.61705 14.29431 3014 ft 162 kts 284°
2026-04-21 17:05 46.61979 14.27841 3010 ft 162 kts 286°
2026-04-21 17:05 46.62378 14.26334 2987 ft 159 kts 313°
2026-04-21 17:05 46.63297 14.25633 2997 ft 145 kts
2026-04-21 17:05 46.64233 14.25954 2932 ft 138 kts 35°
2026-04-21 17:06 46.64932 14.26871 2620 ft 133 kts 54°
2026-04-21 17:06 46.65271 14.28067 2306 ft 128 kts 88°
2026-04-21 17:06 46.65115 14.29349 1977 ft 129 kts 103°
2026-04-21 17:06 46.64878 14.30612 1759 ft 130 kts 107°
2026-04-21 17:07 46.64713 14.31446 1647 ft 130 kts 105°
2026-04-21 17:07 46.64382 14.33111 1475 ft 118 kts 106°
2026-04-21 17:07 46.64199 14.34039 1469 ft 71 kts 107°
2026-04-21 17:07 46.64100 14.34516 1481 ft 39 kts 107°
2026-04-21 17:08 46.64024 14.34879 1470 ft 37 kts 107°
2026-04-21 17:08 46.63958 14.35215 1477 ft 29 kts 103°
2026-04-21 17:08 46.63920 14.35441 1471 ft 14 kts 84°
2026-04-21 17:08 46.63938 14.35456 1468 ft 1 kts 307°
2026-04-21 17:09 46.63941 14.35379 1478 ft 6 kts 273°
2026-04-21 17:09 46.63944 14.35310 1471 ft 8 kts 277°
2026-04-21 17:09 46.63958 14.35230 1468 ft 9 kts 286°
2026-04-21 17:10 46.63978 14.35136 1472 ft 10 kts 286°
2026-04-21 17:10 46.64002 14.35017 1473 ft 14 kts 286°
2026-04-21 17:10 46.64034 14.34859 1469 ft 19 kts 287°
2026-04-21 17:10 46.64074 14.34658 1469 ft 22 kts 285°
2026-04-21 17:11 46.64119 14.34425 1474 ft 26 kts 285°
2026-04-21 17:11 46.64174 14.34157 1471 ft 29 kts 287°
2026-04-21 17:11 46.64231 14.33873 1474 ft 29 kts 287°
2026-04-21 17:11 46.64290 14.33586 1474 ft 30 kts 287°
2026-04-21 17:12 46.64347 14.33296 1474 ft 30 kts 286°
2026-04-21 17:12 46.64407 14.33008 1476 ft 28 kts 288°
2026-04-21 17:12 46.64512 14.32844 1469 ft 23 kts 333°
2026-04-21 17:12 46.64652 14.32731 1479 ft 23 kts 316°
2026-04-21 17:13 46.64788 14.32627 1479 ft 22 kts 343°
2026-04-21 17:13 46.64863 14.32542 1479 ft 9 kts 238°
2026-04-21 17:13 46.64855 14.32514 1479 ft 0 kts 255°
2026-04-21 17:14 46.64839 14.32524 1479 ft 0 kts 255°